GW3899 Weather Reports


time (UTC)temp
F
wind
direction
speed
knots
gust
knots
rain 1hr
in
rain 24hr
in
rain mn
in
humidity
%
barometer
mb
20260906155207 89 157 0.0 0.9 0.00 0.00 0.00 1 1017.8
20260906154703 88 135 0.9 0.9 0.00 0.00 0.00 1 1017.6
20260906154202 88 57 2.6 2.6 0.00 0.00 0.00 1 1017.6
20260906153701 87 160 1.7 2.6 0.00 0.00 0.00 1 1017.7
20260906153155 88 89 2.6 4.3 0.00 0.00 0.00 1 1017.5
20260906152651 87 151 1.7 1.7 0.00 0.00 0.00 1 1017.4
20260906152145 87 142 0.9 0.9 0.00 0.00 0.00 1 1017.4
20260906151639 87 90 2.6 4.3 0.00 0.00 0.00 1 1017.5
20260906151136 87 162 2.6 2.6 0.00 0.00 0.00 1 1017.6
20260906150630 87 95 0.9 0.9 0.00 0.00 0.00 1 1017.3
20260906150126 87 125 0.9 1.7 0.00 0.00 0.00 1 1017.5
20260906145624 86 156 0.9 0.9 0.00 0.00 0.00 1 1017.6
20260906145119 86 133 2.6 2.6 0.00 0.00 0.00 1 1017.4
20260906144614 86 111 1.7 2.6 0.00 0.00 0.00 1 1017.4
20260906144109 85 131 0.9 0.9 0.00 0.00 0.00 1 1017.1
20260906143609 85 131 0.9 0.9 0.00 0.00 0.00 1 1017.5
20260906143106 84 143 0.9 0.9 0.00 0.00 0.00 1 1017.2
20260906142605 84 115 1.7 2.6 0.00 0.00 0.00 1 1017.3
20260906142106 84 142 0.0 0.0 0.00 0.00 0.00 1 1017.5
20260906141605 84 139 0.9 0.9 0.00 0.00 0.00 1 1017.4
20260906141101 84 130 1.7 2.6 0.00 0.00 0.00 1 1017.3
20260906140559 83 136 0.9 0.9 0.00 0.00 0.00 1 1017.3
20260906140054 83 140 0.0 0.0 0.00 0.00 0.00 1 1017.1
20260906135551 82 123 1.7 1.7 0.00 0.00 0.00 1 1017.3
20260906135047 82 149 0.9 0.9 0.00 0.00 0.00 1 1017.3
20260906134542 82 142 0.9 0.9 0.00 0.00 0.00 1 1017.2
20260906134037 82 140 0.0 0.9 0.00 0.00 0.00 1 1017.2
20260906133533 81 132 0.9 0.9 0.00 0.00 0.00 1 1017.1
20260906133028 81 146 0.9 0.9 0.00 0.00 0.00 1 1017.1
20260906132523 80 113 0.9 0.9 0.00 0.00 0.00 1 1017.0
20260906132019 80 118 1.7 2.6 0.00 0.00 0.00 1 1016.8
20260906131514 79 155 0.9 0.9 0.00 0.00 0.00 1 1017.0
20260906131009 78 101 1.7 1.7 0.00 0.00 0.00 1 1016.9
20260906130504 77 151 0.9 1.7 0.00 0.00 0.00 1 1017.1
20260906130004 77 135 1.7 1.7 0.00 0.00 0.00 1 1017.0
20260906125501 77 137 0.0 0.9 0.00 0.00 0.00 1 1017.0
20260906125000 77 164 1.7 1.7 0.00 0.00 0.00 1 1017.1
20260906124456 77 140 0.0 0.0 0.00 0.00 0.00 1 1016.8
20260906123951 76 139 0.0 0.0 0.00 0.00 0.00 1 1017.1
20260906123450 76 134 0.0 0.0 0.00 0.00 0.00 1 1016.8
20260906122945 76 129 0.0 0.0 0.00 0.00 0.00 1 1016.7
20260906122445 76 146 0.0 0.0 0.00 0.00 0.00 1 1016.8
20260906121942 76 141 0.0 0.0 0.00 0.00 0.00 1 1016.5
20260906121437 76 140 0.0 0.0 0.00 0.00 0.00 1 1016.8
20260906120934 76 141 0.0 0.0 0.00 0.00 0.00 1 1016.8
20260906120429 76 143 0.0 0.0 0.00 0.00 0.00 1 1016.5
20260906115926 76 142 0.0 0.0 0.00 0.00 0.00 1 1016.7
20260906115421 76 126 1.7 1.7 0.00 0.00 0.00 1 1016.6
20260906114920 76 138 0.0 0.0 0.00 0.00 0.00 1 1016.2
20260906114415 76 116 0.0 0.9 0.00 0.00 0.00 1 1016.3
20260906113911 77 146 0.9 1.7 0.00 0.00 0.00 1 1016.3
20260906113409 77 145 0.0 0.0 0.00 0.00 0.00 1 1016.2
20260906112905 77 136 0.0 0.0 0.00 0.00 0.00 1 1016.4
20260906112355 77 116 0.0 0.0 0.00 0.00 0.00 1 1016.2
20260906111849 77 128 0.0 0.9 0.00 0.00 0.00 1 1016.2
20260906111344 77 139 0.0 0.9 0.00 0.00 0.00 1 1015.9
20260906110839 77 137 0.0 0.0 0.00 0.00 0.00 1 1016.3
20260906110335 77 139 0.0 0.0 0.00 0.00 0.00 1 1016.2
20260906105833 77 143 0.0 0.0 0.00 0.00 0.00 1 1016.2
20260906105329 77 140 0.0 0.0 0.00 0.00 0.00 1 1015.9
20260906104825 77 144 0.0 0.0 0.00 0.00 0.00 1 1015.8
20260906104323 77 143 0.0 0.0 0.00 0.00 0.00 1 1016.1
20260906103816 77 142 0.9 0.9 0.00 0.00 0.00 1 1015.9
20260906103315 77 143 0.0 0.9 0.00 0.00 0.00 1 1016.2
20260906102811 77 146 0.0 0.0 0.00 0.00 0.00 1 1015.9
20260906102310 78 142 0.0 0.0 0.00 0.00 0.00 1 1015.8
20260906101805 78 136 0.0 0.0 0.00 0.00 0.00 1 1016.1
20260906101300 78 123 0.0 0.0 0.00 0.00 0.00 1 1015.4
20260906100756 78 138 0.0 0.0 0.00 0.00 0.00 1 1015.7
20260906100255 78 140 0.0 0.0 0.00 0.00 0.00 1 1015.6
20260906095750 78 142 0.0 0.0 0.00 0.00 0.00 1 1015.9
20260906095246 78 144 0.0 0.0 0.00 0.00 0.00 1 1015.6
20260906094745 79 145 0.0 0.0 0.00 0.00 0.00 1 1015.6
20260906094240 79 144 0.0 0.0 0.00 0.00 0.00 1 1015.6
20260906093736 79 143 0.0 0.0 0.00 0.00 0.00 1 1015.5
20260906093231 79 142 0.0 0.0 0.00 0.00 0.00 1 1015.6
20260906092726 79 147 0.9 0.9 0.00 0.00 0.00 1 1015.3
20260906092220 80 144 0.0 0.0 0.00 0.00 0.00 1 1015.6
20260906091717 80 138 0.0 0.9 0.00 0.00 0.00 1 1015.3
20260906091213 80 137 0.0 0.9 0.00 0.00 0.00 1 1015.4
20260906090709 80 143 0.9 0.9 0.00 0.00 0.00 1 1015.3
20260906090208 80 141 0.0 0.0 0.00 0.00 0.00 1 1015.0
20260906085707 80 139 0.0 0.0 0.00 0.00 0.00 1 1015.1
20260906085206 80 144 0.0 0.0 0.00 0.00 0.00 1 1014.9
20260906084701 80 138 0.0 0.0 0.00 0.00 0.00 1 1015.0
20260906084200 80 140 0.9 1.7 0.00 0.00 0.00 1 1015.0
20260906083655 80 140 0.9 1.7 0.00 0.00 0.00 1 1015.1
20260906083151 80 124 0.9 0.9 0.00 0.00 0.00 1 1015.0
20260906082646 80 147 0.0 0.0 0.00 0.00 0.00 1 1014.8
20260906082141 80 141 0.0 0.0 0.00 0.00 0.00 1 1014.9
20260906081637 81 140 0.0 0.0 0.00 0.00 0.00 1 1014.9
20260906081132 81 134 0.0 0.9 0.00 0.00 0.00 1 1014.8
20260906080629 81 139 0.0 0.0 0.00 0.00 0.00 1 1015.1
20260906080125 81 123 0.0 0.9 0.00 0.00 0.00 1 1014.9
20260906075624 81 119 1.7 1.7 0.00 0.00 0.00 1 1015.0
20260906075119 81 142 0.0 0.0 0.00 0.00 0.00 1 1015.0
20260906074614 81 143 0.0 0.9 0.00 0.00 0.00 1 1015.0
20260906074113 81 133 0.0 0.0 0.00 0.00 0.00 1 1014.9
20260906073608 81 114 0.9 0.9 0.00 0.00 0.00 1 1015.0
20260906073103 81 136 0.0 0.0 0.00 0.00 0.00 1 1015.0
20260906072558 81 143 0.9 0.9 0.00 0.00 0.00 1 1015.1
20260906072054 81 147 0.0 0.9 0.00 0.00 0.00 1 1015.1
20260906071551 81 140 0.0 0.0 0.00 0.00 0.00 1 1015.0
20260906071045 81 141 0.0 0.0 0.00 0.00 0.00 1 1014.9
20260906070542 80 124 0.0 0.0 0.00 0.00 0.00 1 1015.1
20260906070037 81 146 0.0 0.0 0.00 0.00 0.00 1 1015.2
20260906065537 81 139 0.0 0.0 0.00 0.00 0.00 1 1015.1
20260906065032 80 124 0.0 0.0 0.00 0.00 0.00 1 1015.1
20260906064528 80 142 0.0 0.0 0.00 0.00 0.00 1 1015.2
20260906064023 81 146 0.0 0.0 0.00 0.00 0.00 1 1015.5
20260906063518 81 148 0.0 0.0 0.00 0.00 0.00 1 1015.4
20260906063014 81 143 0.0 0.0 0.00 0.00 0.00 1 1015.3
20260906062509 81 138 0.0 0.0 0.00 0.00 0.00 1 1015.6
20260906062003 81 142 0.0 0.0 0.00 0.00 0.00 1 1015.2
20260906061459 81 142 0.0 0.0 0.00 0.00 0.00 1 1015.5
20260906060953 81 147 0.0 0.0 0.00 0.00 0.00 1 1015.4
20260906060450 81 137 0.0 0.0 0.00 0.00 0.00 1 1015.5
20260906055946 82 145 0.0 0.0 0.00 0.00 0.00 1 1015.4
20260906055442 82 142 0.0 0.0 0.00 0.00 0.00 1 1015.5
20260906054937 82 138 0.0 0.0 0.00 0.00 0.00 1 1015.3
20260906054432 82 144 0.0 0.0 0.00 0.00 0.00 1 1015.4
20260906053928 82 134 0.0 0.0 0.00 0.00 0.00 1 1015.4
20260906053424 82 144 0.0 0.0 0.00 0.00 0.00 1 1015.4
20260906052919 82 134 0.0 0.0 0.00 0.00 0.00 1 1015.2
20260906052415 82 139 0.0 0.0 0.00 0.00 0.00 1 1015.4
20260906051912 82 136 0.0 0.9 0.00 0.00 0.00 1 1015.5
20260906051412 82 140 0.0 0.0 0.00 0.00 0.00 1 1015.4
20260906050908 82 144 0.0 0.0 0.00 0.00 0.00 1 1015.5
20260906050403 82 145 0.0 0.9 0.00 0.00 0.00 1 1015.3
20260906045902 82 150 0.0 0.0 0.00 0.00 0.00 1 1015.4
20260906045400 81 141 0.0 0.0 0.00 0.00 0.00 1 1015.3
20260906044857 81 141 0.0 0.0 0.00 0.00 0.00 1 1015.6
20260906044357 81 134 0.0 0.0 0.00 0.00 0.00 1 1015.2
20260906043853 81 137 0.0 0.0 0.00 0.00 0.00 1 1015.7
20260906043349 82 143 0.0 0.0 0.00 0.00 0.00 1 1015.6
20260906042844 82 140 0.0 0.0 0.00 0.00 0.00 1 1015.5
20260906042342 82 145 0.0 0.0 0.00 0.00 0.00 1 1015.7
20260906041838 82 143 0.0 0.0 0.00 0.00 0.00 1 1015.6
20260906041334 83 151 0.0 0.9 0.00 0.00 0.00 1 1015.5
20260906040834 83 145 0.0 0.0 0.00 0.00 0.00 1 1015.7
20260906040329 84 177 0.9 0.9 0.00 0.00 0.00 1 1015.5
20260906035824 84 155 0.9 0.9 0.00 0.00 0.00 1 1015.4
20260906035319 83 146 0.0 0.0 0.00 0.00 0.00 1 1015.2
20260906034815 84 143 0.0 0.0 0.00 0.00 0.00 1 1015.2
20260906034314 84 141 0.0 0.0 0.00 0.00 0.00 1 1015.2
20260906033810 84 142 0.0 0.0 0.00 0.00 0.00 1 1015.2
20260906033309 84 144 0.0 0.0 0.00 0.00 0.00 1 1015.0
20260906032806 84 144 0.0 0.0 0.00 0.00 0.00 1 1015.0
20260906032301 84 143 0.0 0.0 0.00 0.00 0.00 1 1015.2
20260906031757 84 146 0.0 0.0 0.00 0.00 0.00 1 1015.0
20260906031253 84 144 0.0 0.0 0.00 0.00 0.00 1 1015.0
20260906030752 84 145 0.0 0.0 0.00 0.00 0.00 1 1015.2
20260906030247 84 147 0.0 0.0 0.00 0.00 0.00 1 1014.9
20260906025742 84 148 0.0 0.0 0.00 0.00 0.00 1 1014.9
20260906025241 84 143 0.0 0.0 0.00 0.00 0.00 1 1014.8
20260906024740 84 144 0.0 0.0 0.00 0.00 0.00 1 1014.8
20260906024239 84 147 0.0 0.0 0.00 0.00 0.00 1 1014.7
20260906023735 84 139 0.0 0.0 0.00 0.00 0.00 1 1014.7
20260906023230 84 143 0.0 0.0 0.00 0.00 0.00 1 1014.8
20260906022726 84 141 0.0 0.0 0.00 0.00 0.00 1 1014.6
20260906022221 85 141 0.0 0.0 0.00 0.00 0.00 1 1014.3
20260906021717 85 144 0.0 0.0 0.00 0.00 0.00 1 1014.4
20260906021215 86 144 0.0 0.0 0.00 0.00 0.00 1 1014.2
20260906020711 86 145 0.0 0.0 0.00 0.00 0.00 1 1014.2
20260906020205 86 141 0.0 0.0 0.00 0.00 0.00 1 1014.0
20260906015700 86 144 0.0 0.0 0.00 0.00 0.00 1 1014.0
20260906015158 86 144 0.0 0.0 0.00 0.00 0.00 1 1013.9
20260906014653 86 144 0.0 0.0 0.00 0.00 0.00 1 1013.9
20260906014149 86 142 0.0 0.0 0.00 0.00 0.00 1 1014.1
20260906013645 86 147 0.0 0.0 0.00 0.00 0.00 1 1013.9
20260906013140 87 143 0.0 0.0 0.00 0.00 0.00 1 1013.7
20260906012639 87 139 0.0 0.0 0.00 0.00 0.00 1 1014.0
20260906012134 87 145 0.0 0.0 0.00 0.00 0.00 1 1013.7
20260906011630 87 129 0.0 0.0 0.00 0.00 0.00 1 1013.7
20260906011124 87 144 0.0 0.0 0.00 0.00 0.00 1 1013.7
20260906010619 88 121 0.9 1.7 0.00 0.00 0.00 1 1013.4
20260906010116 88 148 0.9 0.9 0.00 0.00 0.00 1 1013.4
20260906005609 88 129 0.0 0.0 0.00 0.00 0.00 1 1013.5
20260906005109 89 135 0.9 1.7 0.00 0.00 0.00 1 1013.5
20260906004608 89 85 0.0 0.0 0.00 0.00 0.00 1 1013.7
20260906004103 89 135 0.0 0.0 0.00 0.00 0.00 1 1013.7
20260906003559 90 137 0.0 0.0 0.00 0.00 0.00 1 1013.6
20260906003054 91 123 0.9 0.9 0.00 0.00 0.00 1 1013.5
20260906002549 91 137 0.9 0.9 0.00 0.00 0.00 1 1013.3
20260906002043 91 139 0.0 0.0 0.00 0.00 0.00 1 1013.4
20260906001539 92 134 0.0 0.0 0.00 0.00 0.00 1 1013.7
20260906001032 93 132 1.7 1.7 0.00 0.00 0.00 1 1013.6
20260906000529 93 141 0.0 0.0 0.00 0.00 0.00 1 1013.6
20260906000024 94 140 0.0 0.0 0.00 0.00 0.00 1 1013.7
20260905235517 94 140 0.0 0.0 0.00 0.00 0.00 1 1013.6
20260905235013 95 140 0.0 0.0 0.00 0.00 0.00 1 1013.6
20260905234508 95 134 0.0 0.0 0.00 0.00 0.00 1 1013.4
20260905234003 95 137 0.0 0.0 0.00 0.00 0.00 1 1013.3
20260905233458 95 129 0.9 0.9 0.00 0.00 0.00 1 1013.6
20260905232956 95 136 0.0 0.9 0.00 0.00 0.00 1 1013.6
20260905232453 95 144 0.0 0.0 0.00 0.00 0.00 1 1013.3
20260905231948 95 140 0.9 0.9 0.00 0.00 0.00 1 1013.4
20260905231438 96 123 1.7 1.7 0.00 0.00 0.00 1 1013.5
20260905230935 96 143 0.0 0.0 0.00 0.00 0.00 1 1013.5
20260905230433 97 120 2.6 2.6 0.00 0.00 0.00 1 1013.3
20260905225931 96 124 0.9 1.7 0.00 0.00 0.00 1 1013.5
20260905225427 97 98 1.7 2.6 0.00 0.00 0.00 1 1013.1
20260905224921 97 124 0.9 1.7 0.00 0.00 0.00 1 1013.4
20260905224417 97 133 1.7 1.7 0.00 0.00 0.00 1 1013.5
20260905223910 97 21 4.3 5.2 0.00 0.00 0.00 1 1013.4
20260905223409 98 132 0.9 1.7 0.00 0.00 0.00 1 1013.3
20260905222909 98 190 1.7 1.7 0.00 0.00 0.00 1 1013.4
20260905222408 98 39 3.5 4.3 0.00 0.00 0.00 1 1013.6
20260905221904 98 106 1.7 1.7 0.00 0.00 0.00 1 1013.6
20260905221400 98 138 0.9 0.9 0.00 0.00 0.00 1 1013.4
20260905220856 98 79 4.3 6.1 0.00 0.00 0.00 1 1013.3
20260905220352 98 335 3.5 4.3 0.00 0.00 0.00 1 1013.6
20260905215851 99 30 4.3 5.2 0.00 0.00 0.00 1 1013.4
20260905215347 100 28 4.3 5.2 0.00 0.00 0.00 1 1013.3
20260905214843 101 53 3.5 4.3 0.00 0.00 0.00 1 1013.3
20260905214338 99 158 1.7 1.7 0.00 0.00 0.00 1 1013.2
20260905213828 100 195 3.5 5.2 0.00 0.00 0.00 1 1013.2
20260905213324 99 301 3.5 4.3 0.00 0.00 0.00 1 1013.3
20260905212818 99 111 1.7 2.6 0.00 0.00 0.00 1 1013.4
20260905212318 99 23 4.3 5.2 0.00 0.00 0.00 1 1013.3
20260905211813 99 132 0.9 1.7 0.00 0.00 0.00 1 1013.5
20260905211307 99 45 2.6 4.3 0.00 0.00 0.00 1 1013.5
20260905210804 98 148 0.9 0.9 0.00 0.00 0.00 1 1013.6
20260905210303 98 31 3.5 4.3 0.00 0.00 0.00 1 1013.6
20260905205802 97 109 2.6 2.6 0.00 0.00 0.00 1 1013.7
20260905205257 96 58 2.6 2.6 0.00 0.00 0.00 1 1013.7
20260905204756 97 148 2.6 2.6 0.00 0.00 0.00 1 1013.8
20260905204253 99 115 3.5 4.3 0.00 0.00 0.00 1 1013.9
20260905203752 99 79 1.7 1.7 0.00 0.00 0.00 1 1014.1
20260905203247 100 344 4.3 6.1 0.00 0.00 0.00 1 1013.8
20260905202743 100 121 4.3 6.1 0.00 0.00 0.00 1 1013.9
20260905202238 100 193 1.7 1.7 0.00 0.00 0.00 1 1014.0
20260905201734 101 132 0.9 0.9 0.00 0.00 0.00 1 1014.1
20260905201229 101 126 0.0 0.9 0.00 0.00 0.00 1 1014.1
20260905200724 99 131 0.9 1.7 0.00 0.00 0.00 1 1014.4
20260905200220 96 128 0.9 0.9 0.00 0.00 0.00 1 1014.4
20260905195718 96 87 1.7 2.6 0.00 0.00 0.00 1 1014.4
20260905195218 97 151 2.6 2.6 0.00 0.00 0.00 1 1014.4
20260905194713 98 45 5.2 6.1 0.00 0.00 0.00 1 1014.3
20260905194208 98 93 2.6 2.6 0.00 0.00 0.00 1 1014.6
20260905193702 100 123 2.6 2.6 0.00 0.00 0.00 1 1014.6
20260905193157 102 153 0.9 0.9 0.00 0.00 0.00 1 1014.3
20260905192653 100 145 0.0 0.0 0.00 0.00 0.00 1 1014.5
20260905192149 98 139 1.7 1.7 0.00 0.00 0.00 1 1014.3
20260905191648 98 110 2.6 2.6 0.00 0.00 0.00 1 1014.4
20260905191146 99 131 1.7 1.7 0.00 0.00 0.00 1 1014.6
20260905190645 97 142 1.7 1.7 0.00 0.00 0.00 1 1014.8
20260905190144 99 9 3.5 5.2 0.00 0.00 0.00 1 1014.8
20260905185643 98 314 2.6 4.3 0.00 0.00 0.00 1 1014.7
20260905185138 98 108 3.5 5.2 0.00 0.00 0.00 1 1014.9
20260905184637 97 97 3.5 4.3 0.00 0.00 0.00 1 1014.9
20260905184137 99 145 0.9 0.9 0.00 0.00 0.00 1 1015.1
20260905183636 99 98 3.5 4.3 0.00 0.00 0.00 1 1014.9
20260905183131 98 158 1.7 1.7 0.00 0.00 0.00 1 1015.1
20260905182631 100 185 1.7 2.6 0.00 0.00 0.00 1 1015.1
20260905182130 99 150 2.6 2.6 0.00 0.00 0.00 1 1015.5
20260905181625 99 130 0.9 0.9 0.00 0.00 0.00 1 1015.5
20260905181124 98 145 0.9 1.7 0.00 0.00 0.00 1 1015.7
20260905180619 98 198 3.5 4.3 0.00 0.00 0.00 1 1015.6
20260905180115 98 175 0.9 1.7 0.00 0.00 0.00 1 1015.5
20260905175614 98 169 2.6 2.6 0.00 0.00 0.00 1 1015.8
20260905175109 98 192 3.5 4.3 0.00 0.00 0.00 1 1015.7
20260905174605 97 162 2.6 2.6 0.00 0.00 0.00 1 1015.8
20260905174100 97 197 3.5 5.2 0.00 0.00 0.00 1 1015.8
20260905173557 97 201 2.6 2.6 0.00 0.00 0.00 1 1016.1
20260905173052 97 189 4.3 5.2 0.00 0.00 0.00 1 1016.1
20260905172550 96 143 0.9 0.9 0.00 0.00 0.00 1 1016.2
20260905172045 96 157 2.6 2.6 0.00 0.00 0.00 1 1016.2
20260905171542 96 135 0.9 0.9 0.00 0.00 0.00 1 1016.1
20260905171038 96 211 1.7 2.6 0.00 0.00 0.00 1 1015.9
20260905170534 97 199 2.6 4.3 0.00 0.00 0.00 1 1015.9
20260905170029 97 165 1.7 2.6 0.00 0.00 0.00 1 1016.2
20260905165524 96 140 0.9 0.9 0.00 0.00 0.00 1 1016.2
20260905165019 95 320 4.3 5.2 0.00 0.00 0.00 1 1016.3
20260905164514 95 158 1.7 2.6 0.00 0.00 0.00 1 1016.3
20260905164009 94 157 0.9 0.9 0.00 0.00 0.00 1 1016.4
20260905163505 96 197 3.5 4.3 0.00 0.00 0.00 1 1016.4
20260905163001 94 174 0.9 1.7 0.00 0.00 0.00 1 1016.6
20260905162455 94 160 2.6 2.6 0.00 0.00 0.00 1 1016.5
20260905161945 93 183 2.6 2.6 0.00 0.00 0.00 1 1016.4
20260905161444 93 167 1.7 1.7 0.00 0.00 0.00 1 1016.5
20260905160942 92 165 1.7 1.7 0.00 0.00 0.00 1 1016.7
20260905160436 92 207 1.7 1.7 0.00 0.00 0.00 1 1016.6
20260905155936 92 174 0.9 1.7 0.00 0.00 0.00 1 1016.8